Regional Weather Roundup
Issued by NWS Little Rock, AR

Home | Current Version | Previous Version | Graphics & Text | Print | Product List | Glossary On
Versions: 1 2 3 4 5 6 7 8 9 10 11 12 13 14 15 16 17 18 19 20 21 22 23 24 25 26 27 28 29 30 31 32 33 34 35 36 37 38 39 40 41 42 43 44 45 46 47 48 49
000
ASUS44 KLZK 191805
RWRLZK

WEATHER ROUNDUP FOR ARKANSAS
NATIONAL WEATHER SERVICE LITTLE ROCK AR
1200 PM CST FRI DEC 19 2014

NOTE: "FAIR" INDICATES FEW OR NO CLOUDS BELOW 12,000 FEET WITH NO
SIGNIFICANT WEATHER AND/OR OBSTRUCTIONS TO VISIBILITY.

ARZ001-003-010-029-191900-
NORTHWEST ARKANSAS

CITY           SKY/WX    TMP DP  RH WIND       PRES   REMARKS
FAYETTEVILLE   CLOUDY    40  40 100 E3        30.22F FOG
6HR MIN TEMP:  39; 6HR MAX TEMP:  40;

FORT SMITH     CLOUDY    43  39  86 E8        30.23F FOG
6HR MIN TEMP:  41; 6HR MAX TEMP:  43;

HARRISON       LGT RAIN  37  37 100 SE8       30.24S VSB 1/2
6HR MIN TEMP:  36; 6HR MAX TEMP:  37; 6HR PCP: TRACE;

BENTONVILLE    CLOUDY    41  37  87 SE3       30.23F
6HR MIN TEMP:  39; 6HR MAX TEMP:  41;

ROGERS         LGT RAIN  40  38  93 E6        30.22F
6HR MIN TEMP:  38; 6HR MAX TEMP:  40; 6HR PCP: TRACE;

SILOAM SPGS    CLOUDY    39  36  87 CALM      30.23F
6HR MIN TEMP:  39; 6HR MAX TEMP:  41;

HIGHFILL       CLOUDY    40  40 100 E5        30.22F FOG
6HR MIN TEMP:  39; 6HR MAX TEMP:  40;

SPRINGDALE     CLOUDY    41  41 100 CALM      30.24F FOG
$$

ARZ004-005-016-191900-
NORTH CENTRAL ARKANSAS

CITY           SKY/WX    TMP DP  RH WIND       PRES   REMARKS
BATESVILLE     CLOUDY    39  34  81 E6        30.30S
6HR MIN TEMP:  37; 6HR MAX TEMP:  39;

FLIPPIN        CLOUDY    39  34  81 SE6       30.26F
6HR MIN TEMP:  37; 6HR MAX TEMP:  39;

MTN HOME       CLOUDY    37  35  92 E7        30.26S FOG
6HR MIN TEMP:  37; 6HR MAX TEMP:  38;

$$

ARZ040-041-191900-
WEST CENTRAL ARKANSAS

CITY           SKY/WX    TMP DP  RH WIND       PRES   REMARKS
MENA           CLOUDY    45  41  87 NE6       30.20F
MOUNT IDA      CLOUDY    42  40  92 CALM      30.18F
6HR MIN TEMP:  40; 6HR MAX TEMP:  42; 6HR PCP:  0.07;

$$

ARZ009-017-025-026-028-191900-
NORTHEAST ARKANSAS

CITY           SKY/WX    TMP DP  RH WIND       PRES   REMARKS
CORNING        FAIR      39  32  75 NE3       30.31S
JONESBORO      CLOUDY    40  33  76 NE7       30.30S
6HR MIN TEMP:  37; 6HR MAX TEMP:  41;

NEWPORT        CLOUDY    40  36  86 N6        30.31F
6HR MIN TEMP:  38; 6HR MAX TEMP:  40;

WALNUT RIDGE   CLOUDY    39  30  70 E8        30.30F
6HR MIN TEMP:  36; 6HR MAX TEMP:  39;

BLYTHEVILLE    CLOUDY    42  33  70 NE7       30.30S
6HR MIN TEMP:  37; 6HR MAX TEMP:  42;

$$

ARZ022-023-033-042-044-191900-
CENTRAL ARKANSAS

CITY           SKY/WX    TMP DP  RH WIND       PRES   REMARKS
LITTLE ROCK    LGT RAIN  44  37  76 E9        30.26F
6HR MIN TEMP:  42; 6HR MAX TEMP:  44; 6HR PCP: TRACE;

N LITTLE ROCK  CLOUDY    41  40  95 NE10      30.26F
6HR MIN TEMP:  39; 6HR MAX TEMP:  42;

JACKSONVILLE   LGT RAIN  42  37  82 NE9       30.26F
6HR MIN TEMP:  39; 6HR MAX TEMP:  43; 6HR PCP: TRACE;

SEARCY         CLOUDY    42  36  79 NE8       30.31S
6HR MIN TEMP:  40; 6HR MAX TEMP:  42;

HOT SPRINGS    LGT RAIN  42  40  92 E7        30.21F
6HR MIN TEMP:  40; 6HR MAX TEMP:  42; 6HR PCP:  0.03;

RUSSELLVILLE   CLOUDY    43  37  79 E5        30.24F
6HR MIN TEMP:  41; 6HR MAX TEMP:  44;

CLINTON        CLOUDY    41  36  81 SE5       30.29F
$$

ARZ036-191900-
EAST ARKANSAS

CITY           SKY/WX    TMP DP  RH WIND       PRES   REMARKS
WEST MEMPHIS   CLOUDY    42  35  76 NE6       30.27F
6HR MIN TEMP:  40; 6HR MAX TEMP:  42;

$$

ARZ050-053-066-070-073-191900-
SOUTHWEST ARKANSAS

CITY           SKY/WX    TMP DP  RH WIND       PRES   REMARKS
ARKADELPHIA    LGT RAIN  43  43 100 NE8       30.21F FOG
6HR MIN TEMP:  42; 6HR MAX TEMP:  43; 6HR PCP:  0.04;

CAMDEN         CLOUDY    45  41  87 MISG      30.23F FOG
TEXARKANA      CLOUDY    45  43  93 VRB6      30.17F
6HR MIN TEMP:  42; 6HR MAX TEMP:  45; 6HR PCP: TRACE;

EL DORADO      LGT RAIN  44  42  93 NE10      30.22F FOG
6HR MIN TEMP:  43; 6HR MAX TEMP:  45; 6HR PCP:  0.22;

DE QUEEN       CLOUDY    45  43  93 NE6       30.19F
6HR MIN TEMP:  43; 6HR MAX TEMP:  45; 6HR PCP: TRACE;

$$

ARZ056-057-069-191900-
SOUTHEAST ARKANSAS

CITY           SKY/WX    TMP DP  RH WIND       PRES   REMARKS
PINE BLUFF     CLOUDY    45  39  79 NE7       30.26F
6HR MIN TEMP:  41; 6HR MAX TEMP:  45;

STUTTGART      CLOUDY    45  37  76 NE8       30.28F
6HR MIN TEMP:  39; 6HR MAX TEMP:  45;

MONTICELLO     LGT RAIN  45  41  86 N6        30.23F
6HR MIN TEMP:  42; 6HR MAX TEMP:  45; 6HR PCP: TRACE;


$$




USA.gov is the U.S. government's official web portal to all federal, state and local government web resources and services.